[[[{"header":{"parameterUnit":"kt","parameterCategory":2,"dx":1,"dy":1,"la1":30.253999710083008,"la2":30.299108505249023,"lo1":-89.0895004272461,"lo2":-89.04439544677734,"nx":28,"ny":28,"refTime":"2022-10-25T21:00:00:Z","depth":"0","parameterNumber":2,"parameterNumberName":"U-component_of_CURRENTS"},"data":[-0.1678,-0.1616,-0.1625,-0.1577,-0.1596,-0.1582,-0.1618,-0.1681,-0.1798,-0.1929,-0.2053,-0.2201,-0.2193,-0.2185,-0.1944,-0.1813,-0.1756,-0.1687,-0.1806,-0.1845,-0.188,-0.1913,-0.1817,-0.1583,-0.1583,-0.1456,-0.1455,-0.1455,-0.177,-0.1757,-0.1752,-0.1767,-0.1778,-0.1853,-0.1968,-0.1991,-0.2089,-0.2284,-0.2403,-0.2469,-0.2362,-0.2352,-0.221,-0.21,-0.2024,-0.2026,-0.1949,-0.1915,-0.2092,-0.1991,-0.179,-0.179,-0.179,-0.179,-0.179,-0.179,-0.1922,-0.1897,-0.191,-0.1916,-0.1961,-0.2023,-0.204,-0.2188,-0.2305,-0.246,-0.2633,-0.2724,-0.2718,-0.2751,-0.2727,-0.2535,-0.2661,-0.2387,-0.2444,-0.2494,-0.2353,-0.2561,-0.2527,-0.253,-0.2532,-0.2534,-0.2536,0,-0.2033,-0.2054,-0.2062,-0.2076,-0.2103,-0.2164,-0.2244,-0.2314,-0.2499,-0.261,-0.2769,-0.2851,-0.2979,-0.2926,-0.2977,-0.2946,-0.2829,-0.2885,-0.2842,-0.2419,-0.2406,-0.2333,-0.2586,-0.2574,-0.2577,-0.258,-0.2581,-0.2583,-0.2145,-0.2145,-0.2206,-0.2209,-0.2228,-0.2272,-0.2318,-0.2458,-0.2538,-0.2741,-0.2789,-0.2924,-0.3003,-0.3129,-0.3115,-0.3143,-0.3089,-0.2959,-0.2838,-0.276,-0.2791,-0.2817,-0.2749,-0.2618,-0.2613,-0.261,-0.2607,0,-0.2191,-0.2248,-0.2265,-0.2341,-0.2361,-0.2368,-0.2478,-0.2531,-0.2642,-0.2738,-0.2763,-0.2917,-0.3,-0.3069,-0.3136,-0.3121,-0.3086,-0.3156,-0.2924,-0.2896,-0.2777,-0.2803,-0.2854,-0.2777,-0.3147,-0.3147,-0.3147,0,-0.2281,-0.2292,-0.2367,-0.2372,-0.2399,-0.2479,-0.2529,-0.2584,-0.2696,-0.2764,-0.2833,-0.2904,-0.295,-0.3024,-0.3025,-0.3061,-0.31,-0.3024,-0.3027,-0.2822,-0.2801,-0.2743,-0.2759,-0.3067,-0.3066,-0.3066,-0.3065,0,-0.2314,-0.2386,-0.2403,-0.2426,-0.2514,-0.2534,-0.2572,-0.2663,-0.2714,-0.2792,-0.2843,-0.2899,-0.2927,-0.2952,-0.2976,-0.2941,-0.306,-0.3014,-0.3,-0.2998,-0.2823,-0.2803,-0.2764,-0.3064,-0.3063,-0.3063,-0.3063,0,-0.238,-0.2411,-0.2446,-0.2514,-0.2532,-0.2559,-0.2629,-0.2671,-0.2756,-0.2784,-0.2825,-0.2845,-0.2885,-0.2843,-0.2909,-0.2874,-0.2882,-0.2896,-0.29,-0.2869,-0.2842,-0.2722,-0.2728,-0.2653,-0.2937,-0.2935,-0.2934,0,-0.2384,-0.2432,-0.2478,-0.2514,-0.2537,-0.2588,-0.2631,-0.2677,-0.2708,-0.2755,-0.277,-0.2793,-0.2761,-0.2763,-0.2786,-0.2803,-0.2834,-0.278,-0.2857,-0.2861,-0.2825,-0.287,-0.2642,-0.2716,-0.2917,-0.2919,-0.292,0,-0.2389,-0.2462,-0.2466,-0.2484,-0.2545,-0.2566,-0.2609,-0.2653,-0.2685,-0.2697,-0.2737,-0.2736,-0.2737,-0.2743,-0.2738,-0.2762,-0.2807,-0.2743,-0.2744,-0.2789,-0.2889,-0.2852,-0.286,-0.2795,-0.2797,-0.2798,-0.2907,0,-0.2426,-0.2452,-0.2466,-0.2512,-0.2541,-0.2561,-0.2602,-0.2622,-0.2624,-0.2643,-0.267,-0.2669,-0.2687,-0.2684,-0.2672,-0.2711,-0.2716,-0.27,-0.2699,-0.2723,-0.2767,-0.2778,-0.2651,-0.265,-0.265,-0.265,0,0,-0.2409,-0.244,-0.247,-0.2502,-0.252,-0.2542,-0.2567,-0.2586,-0.261,-0.2623,-0.2605,-0.2633,-0.2627,-0.2662,-0.2659,-0.2656,-0.2677,-0.2658,-0.2704,-0.271,-0.2716,-0.2759,-0.2769,-0.265,-0.2649,-0.2649,-0.2649,0,-0.2422,-0.2443,-0.2462,-0.249,-0.2524,-0.2542,-0.255,-0.258,-0.2585,-0.2602,-0.2598,-0.2607,-0.2613,-0.2626,-0.2631,-0.265,-0.2662,-0.2645,-0.2669,-0.2701,-0.2707,-0.2712,-0.2756,-0.2765,-0.2649,-0.2649,-0.2649,0,-0.2423,-0.2449,-0.2457,-0.2502,-0.2517,-0.2547,-0.2546,-0.2567,-0.2584,-0.2576,-0.2589,-0.2587,-0.2593,-0.2606,-0.2611,-0.2609,-0.2656,-0.2625,-0.2626,-0.2638,-0.2671,-0.2677,-0.2683,-0.2607,-0.2607,-0.2607,0,0,-0.2432,-0.245,-0.2491,-0.2507,-0.2522,-0.2541,-0.2552,-0.2562,-0.2575,-0.2576,-0.2579,-0.2582,-0.2589,-0.2593,-0.2598,-0.2613,-0.2634,-0.262,-0.2622,-0.2623,-0.2636,-0.2669,-0.2675,-0.2607,-0.2607,-0.2607,0,0,-0.2433,-0.2476,-0.248,-0.2508,-0.2531,-0.2559,-0.2565,-0.2571,-0.2576,-0.257,-0.2571,-0.2572,-0.2581,-0.2583,-0.2577,-0.2598,-0.259,-0.2591,-0.2598,-0.26,-0.2602,-0.2616,-0.2571,0,0,0,0,0,-0.2456,-0.2473,-0.2477,-0.2485,-0.2526,-0.2558,-0.2562,-0.257,-0.2562,-0.2569,-0.2568,-0.2564,-0.258,-0.2575,-0.2577,-0.2585,-0.2601,-0.2602,-0.2603,-0.2614,-0.2617,-0.2619,0,0,0,0,0,0,-0.246,-0.247,-0.2476,-0.2506,-0.2515,-0.2558,-0.2549,-0.2551,-0.2561,-0.256,-0.2564,-0.2564,-0.2565,-0.2574,-0.2575,-0.2584,-0.257,-0.2601,-0.2602,-0.2603,-0.2615,-0.2617,-0.2619,0,0,0,0,0,-0.2463,-0.2471,-0.2536,-0.2505,-0.2513,-0.253,-0.2548,-0.255,-0.2554,-0.2563,-0.2563,-0.2559,-0.2565,-0.2566,-0.2575,-0.2583,-0.2569,-0.257,-0.2602,-0.2602,-0.2603,-0.2616,0,0,0,0,0,0,-0.2465,-0.2466,-0.2537,-0.254,-0.2499,-0.2527,-0.2532,-0.2549,-0.2555,-0.2556,-0.2557,-0.2557,-0.2566,-0.2566,-0.2567,-0.2583,-0.2568,-0.2569,-0.2569,-0.2602,-0.2603,-0.2603,0,0,0,0,0,0,-0.2462,-0.2468,-0.2539,-0.2531,-0.2533,-0.2525,-0.2529,-0.2538,-0.2554,-0.2548,-0.2549,-0.2557,-0.2561,-0.2567,-0.2567,-0.2581,-0.2567,-0.2568,-0.2568,-0.2568,-0.2603,-0.2603,0,0,0,0,0,0,-0.2465,-0.247,-0.253,-0.2531,-0.2533,-0.2559,-0.2532,-0.2569,-0.256,-0.2547,-0.2559,-0.2558,-0.2561,-0.2562,-0.2567,-0.2581,-0.2581,-0.2567,-0.2568,-0.2568,-0.2568,0,0,0,0,0,0,0,-0.2467,-0.2431,-0.2526,-0.2532,-0.2533,-0.2564,-0.2564,-0.2564,-0.256,-0.2559,-0.2559,-0.2558,-0.2563,-0.2564,-0.2565,-0.258,0,0,-0.2567,-0.2567,0,0,0,0,0,0,0,0,-0.2429,-0.2431,-0.2526,-0.2527,-0.2528,-0.2564,-0.2564,-0.2564,-0.256,-0.256,-0.2559,-0.2559,-0.2564,-0.2564,-0.2565,0,0,0,0,0,0,0,0,0,0,0,0,0,0,0,-0.2526,-0.2527,0,-0.2564,-0.2564,-0.2564,-0.256,-0.256,-0.2559,-0.2559,-0.2564,-0.2564,-0.2565,0,0,0,0,0,0,0,0,0,0,0,0,0,0,0,0,0,0,0,0,0,0,0,0,0,0,0,0,0,0,0,0,0,0,0,0,0,0,0,0,0,0,0,0,0,0,0,0,0,0,0,0,0,0,0,0,0,0,0,0,0,0,0,0,0,0,0,0,0]}],[{"header":{"parameterUnit":"kt","parameterCategory":2,"dx":1,"dy":1,"la1":30.253999710083008,"la2":30.299108505249023,"lo1":-89.0895004272461,"lo2":-89.04439544677734,"nx":28,"ny":28,"refTime":"2022-10-25T21:00:00:Z","depth":"0","parameterNumber":3,"parameterNumberName":"V-component_of_CURRENTS"},"data":[-0.1439,-0.1498,-0.1537,-0.1704,-0.1784,-0.19,-0.1932,-0.1961,-0.1891,-0.1678,-0.1379,-0.114,-0.0223,0.0993,0.1702,0.176,0.2031,0.1976,0.2157,0.18,0.176,0.1721,0.1751,0.2115,0.2116,0.2625,0.263,0.2634,-0.1435,-0.1472,-0.1545,-0.1638,-0.1746,-0.1762,-0.1827,-0.185,-0.1865,-0.1747,-0.1634,-0.1033,-0.0441,0.0158,0.0959,0.1266,0.1336,0.14,0.147,0.154,0.103,0.1036,0.1253,0.1253,0.1253,0.1253,0.1253,0.1252,-0.1418,-0.1451,-0.1493,-0.1559,-0.1634,-0.172,-0.1754,-0.1772,-0.177,-0.1674,-0.1534,-0.133,-0.072,-0.0061,0.0199,0.0759,0.0721,0.0905,0.0982,0.1017,0.1139,0.0528,0.0701,0.0701,0.0701,0.0701,0.0701,0,-0.1391,-0.1402,-0.1432,-0.1505,-0.1549,-0.1606,-0.162,-0.1633,-0.1555,-0.1504,-0.1404,-0.1277,-0.0847,-0.0454,0.001,0.0212,0.0574,0.0459,0.0683,0.0803,0.0842,0.0968,0.0334,0.0476,0.0475,0.0474,0.0473,0.0472,-0.1333,-0.1364,-0.1402,-0.1435,-0.1443,-0.1466,-0.1483,-0.1425,-0.1416,-0.1279,-0.1259,-0.1043,-0.0895,-0.0467,-0.0116,0.0217,0.0374,0.0416,0.0431,0.0618,0.0727,0.0772,0.0858,0.0458,0.046,0.0461,0.0462,0,-0.1292,-0.1299,-0.1348,-0.135,-0.1355,-0.1371,-0.1357,-0.1355,-0.1262,-0.1208,-0.1171,-0.0973,-0.0757,-0.0505,-0.0233,-0.0057,0.0296,0.0247,0.0192,0.0224,0.0572,0.0644,0.0934,0.1058,0.0439,0.0441,0.0443,0,-0.1227,-0.1261,-0.1261,-0.1285,-0.1317,-0.1267,-0.1271,-0.1211,-0.1126,-0.1092,-0.0923,-0.0857,-0.0606,-0.0442,-0.0269,-0.0029,-0.0042,0.0139,0.0178,0.0156,0.0158,0.0386,0.0464,0.0129,0.0128,0.0127,0.0126,0,-0.117,-0.1182,-0.122,-0.1221,-0.1199,-0.1193,-0.1167,-0.1065,-0.1034,-0.0908,-0.0869,-0.0695,-0.0616,-0.0446,-0.0254,-0.0259,-0.0037,-0.0018,0.0127,0.013,0.0177,0.0182,0.0462,0.0125,0.0125,0.0125,0.0124,0,-0.1107,-0.1117,-0.1146,-0.1155,-0.1148,-0.1139,-0.1083,-0.104,-0.0916,-0.086,-0.0749,-0.0651,-0.0517,-0.0473,-0.0264,-0.0312,-0.021,-0.0122,-0.0115,-0.0035,-0.0016,0.0053,0.0125,0.0339,-0.0049,-0.005,-0.0052,0,-0.108,-0.1096,-0.1065,-0.1082,-0.1088,-0.102,-0.0986,-0.0914,-0.0841,-0.0776,-0.0646,-0.0574,-0.0508,-0.047,-0.0384,-0.027,-0.0201,-0.0268,-0.0099,-0.0094,-0.0065,-0.0002,-0.0007,0.0096,-0.0072,-0.007,-0.0068,0,-0.1051,-0.1035,-0.1033,-0.1052,-0.0988,-0.0962,-0.0911,-0.0847,-0.0826,-0.0727,-0.0683,-0.0552,-0.05,-0.0445,-0.0375,-0.0304,-0.0234,-0.0274,-0.0269,-0.0251,-0.0091,-0.0038,-0.002,-0.0198,-0.0196,-0.0194,-0.0084,0,-0.1057,-0.1044,-0.1027,-0.0999,-0.0959,-0.0934,-0.0867,-0.0825,-0.0784,-0.0735,-0.0639,-0.054,-0.0456,-0.0417,-0.0377,-0.0297,-0.0289,-0.0263,-0.0257,-0.0234,-0.0189,-0.0177,-0.0308,-0.0307,-0.0306,-0.0305,0,0,-0.1057,-0.1037,-0.0972,-0.0958,-0.0938,-0.0869,-0.0861,-0.081,-0.0728,-0.0698,-0.0684,-0.0534,-0.0466,-0.0376,-0.0367,-0.0325,-0.0289,-0.0332,-0.0247,-0.0241,-0.0236,-0.0192,-0.0181,-0.0304,-0.0304,-0.0304,-0.0303,0,-0.1057,-0.1008,-0.099,-0.0956,-0.0897,-0.086,-0.0849,-0.0782,-0.0753,-0.0691,-0.0647,-0.0574,-0.0473,-0.0414,-0.037,-0.0323,-0.0281,-0.0303,-0.0319,-0.0244,-0.0239,-0.0234,-0.0191,-0.0182,-0.0302,-0.0302,-0.0302,0,-0.1064,-0.1023,-0.1,-0.0927,-0.0887,-0.0861,-0.0828,-0.0777,-0.0757,-0.0692,-0.0647,-0.0583,-0.05,-0.0429,-0.0391,-0.0388,-0.0275,-0.0308,-0.031,-0.031,-0.0232,-0.0226,-0.0221,-0.0287,-0.0288,-0.0288,0,0,-0.1068,-0.1032,-0.0964,-0.0921,-0.0898,-0.0844,-0.0812,-0.0787,-0.0728,-0.0707,-0.0653,-0.0588,-0.0519,-0.0478,-0.0411,-0.0337,-0.0297,-0.031,-0.0311,-0.0312,-0.0313,-0.0235,-0.023,-0.029,-0.029,-0.029,0,0,-0.1065,-0.0995,-0.0984,-0.093,-0.0878,-0.0808,-0.0781,-0.0761,-0.0707,-0.0707,-0.0646,-0.0626,-0.0553,-0.0504,-0.053,-0.0413,-0.0405,-0.0398,-0.0457,-0.0456,-0.0457,-0.048,-0.0505,0,0,0,0,0,-0.1035,-0.1003,-0.0994,-0.0977,-0.0883,-0.0813,-0.08,-0.0763,-0.0767,-0.0749,-0.0697,-0.0672,-0.0508,-0.053,-0.0507,-0.0488,-0.0307,-0.0304,-0.0301,-0.0359,-0.0359,-0.036,0,0,0,0,0,0,-0.1028,-0.1009,-0.0994,-0.0924,-0.0901,-0.0814,-0.0814,-0.0803,-0.0769,-0.0767,-0.0684,-0.0669,-0.0626,-0.0538,-0.0518,-0.0501,-0.0512,-0.0306,-0.0304,-0.0301,-0.0359,-0.0359,-0.036,0,0,0,0,0,-0.1022,-0.1007,-0.0868,-0.0924,-0.0904,-0.0844,-0.0816,-0.0807,-0.0783,-0.0701,-0.0687,-0.0757,-0.0627,-0.0607,-0.0526,-0.0512,-0.0525,-0.0518,-0.0304,-0.0302,-0.03,-0.0359,0,0,0,0,0,0,-0.1018,-0.1001,-0.0863,-0.0855,-0.0936,-0.0848,-0.0835,-0.081,-0.0718,-0.0704,-0.0771,-0.0771,-0.0627,-0.0611,-0.0596,-0.0519,-0.0536,-0.0529,-0.0524,-0.0303,-0.0301,-0.03,0,0,0,0,0,0,-0.1009,-0.0995,-0.0859,-0.0876,-0.087,-0.0852,-0.0841,-0.0763,-0.0716,-0.0794,-0.0791,-0.0772,-0.0637,-0.0614,-0.0602,-0.0483,-0.0544,-0.0537,-0.0532,-0.0529,-0.0302,-0.03,0,0,0,0,0,0,-0.1002,-0.099,-0.0878,-0.0874,-0.0869,-0.078,-0.0781,-0.0681,-0.075,-0.0798,-0.0753,-0.0754,-0.064,-0.0627,-0.0606,-0.0493,-0.0485,-0.0544,-0.0539,-0.0536,-0.0534,0,0,0,0,0,0,0,-0.0996,-0.1088,-0.0906,-0.0872,-0.0867,-0.0781,-0.0779,-0.0777,-0.0751,-0.0751,-0.0752,-0.0753,-0.0584,-0.0576,-0.0568,-0.0501,0,0,-0.0545,-0.0541,0,0,0,0,0,0,0,0,-0.1092,-0.1089,-0.0905,-0.0904,-0.0902,-0.0781,-0.0779,-0.0778,-0.0751,-0.0751,-0.0752,-0.0753,-0.0582,-0.0576,-0.0569,0,0,0,0,0,0,0,0,0,0,0,0,0,0,0,-0.0905,-0.0904,0,-0.078,-0.0779,-0.0778,-0.0751,-0.0751,-0.0752,-0.0753,-0.058,-0.0575,-0.057,0,0,0,0,0,0,0,0,0,0,0,0,0,0,0,0,0,0,0,0,0,0,0,0,0,0,0,0,0,0,0,0,0,0,0,0,0,0,0,0,0,0,0,0,0,0,0,0,0,0,0,0,0,0,0,0,0,0,0,0,0,0,0,0,0,0,0,0,0]}]],[[{"header":{"parameterUnit":"kt","parameterCategory":2,"dx":1,"dy":1,"la1":30.253999710083008,"la2":30.299108505249023,"lo1":-89.0895004272461,"lo2":-89.04439544677734,"nx":28,"ny":28,"refTime":"2022-10-25T21:00:00:Z","depth":"2","parameterNumber":2,"parameterNumberName":"U-component_of_CURRENTS"},"data":[-0.1791,-0.1734,-0.1741,-0.1677,-0.1685,-0.1636,-0.1634,-0.1648,-0.1708,-0.1732,-0.1766,-0.1961,-0.2004,-0.1642,-0.1531,-0.1345,-0.148,-0.1261,-0.2007,-0.1919,-0.1958,-0.2044,-0.1891,0,0,0,0,0,-0.1877,-0.1863,-0.1862,-0.1868,-0.1866,-0.1935,-0.1993,-0.1982,-0.2025,-0.2158,-0.2244,-0.2073,-0.2006,-0.2037,-0.1837,-0.1816,-0.175,-0.1714,-0.1597,-0.1645,-0.1688,-0.1553,-0.1218,-0.1215,-0.1213,-0.1211,0,0,-0.2019,-0.1995,-0.2014,-0.202,-0.2057,-0.2086,-0.208,-0.2194,-0.2262,-0.2354,-0.2518,-0.255,-0.2568,-0.2486,-0.239,-0.2307,-0.2506,-0.2349,-0.2361,-0.238,-0.2285,-0.2247,-0.2141,-0.2145,-0.2148,-0.2151,-0.2154,0,-0.2125,-0.2143,-0.2157,-0.2177,-0.2199,-0.2244,-0.2306,-0.2341,-0.2486,-0.2567,-0.2685,-0.2744,-0.285,-0.2747,-0.2778,-0.2734,-0.2726,-0.2649,-0.3089,-0.2377,-0.234,-0.2336,-0.2353,-0.2267,-0.2271,-0.2275,-0.2277,-0.2279,-0.2224,-0.2232,-0.2296,-0.23,-0.2326,-0.2365,-0.24,-0.2512,-0.2562,-0.2719,-0.2742,-0.2859,-0.2916,-0.3025,-0.3001,-0.3019,-0.3082,-0.2756,-0.2633,-0.2997,-0.2995,-0.2991,-0.2987,-0.233,-0.2323,-0.2318,-0.2314,0,-0.226,-0.2328,-0.2353,-0.2436,-0.2456,-0.246,-0.2548,-0.2582,-0.2669,-0.2725,-0.274,-0.2871,-0.2948,-0.3014,-0.3076,-0.3056,-0.308,-0.3071,-0.2784,-0.2748,-0.2997,-0.2991,-0.3035,-0.3033,-0.3032,-0.3031,-0.303,0,-0.2342,-0.2363,-0.2449,-0.2465,-0.2488,-0.2568,-0.2602,-0.2648,-0.2726,-0.2766,-0.2828,-0.2871,-0.2922,-0.2985,-0.2996,-0.3019,-0.3059,-0.2979,-0.298,-0.272,-0.2694,-0.2983,-0.2976,-0.3029,-0.3028,-0.3028,-0.3027,0,-0.2363,-0.2451,-0.2481,-0.2509,-0.26,-0.262,-0.2655,-0.2728,-0.2763,-0.2818,-0.285,-0.2888,-0.291,-0.2927,-0.2967,-0.2942,-0.3038,-0.3004,-0.2968,-0.2966,-0.2715,-0.2688,-0.3026,-0.3026,-0.3026,-0.3025,-0.3025,0,-0.2426,-0.247,-0.2521,-0.2592,-0.261,-0.264,-0.2698,-0.274,-0.2806,-0.2829,-0.285,-0.286,-0.2895,-0.2863,-0.2921,-0.2899,-0.2909,-0.2927,-0.293,-0.2866,-0.2853,-0.2656,-0.2631,-0.2976,-0.2975,-0.2974,-0.2973,0,-0.2418,-0.2487,-0.2539,-0.2586,-0.2617,-0.2667,-0.271,-0.2756,-0.2783,-0.2819,-0.2828,-0.2842,-0.2829,-0.2827,-0.2843,-0.2869,-0.2889,-0.2852,-0.2897,-0.2899,-0.2844,-0.2875,-0.2577,-0.2632,-0.2963,-0.2964,-0.2965,0,-0.2415,-0.251,-0.2517,-0.2543,-0.2614,-0.2636,-0.2684,-0.273,-0.2754,-0.2778,-0.2804,-0.2819,-0.2811,-0.2816,-0.2817,-0.2834,-0.2875,-0.2825,-0.2825,-0.2864,-0.2926,-0.2869,-0.2871,-0.2858,-0.2859,-0.286,-0.2956,0,-0.2477,-0.2506,-0.2518,-0.2574,-0.2604,-0.2629,-0.2676,-0.2701,-0.2709,-0.2732,-0.2754,-0.276,-0.2771,-0.278,-0.2779,-0.2806,-0.2815,-0.2794,-0.2783,-0.2807,-0.2848,-0.2855,-0.2768,-0.2767,-0.2767,-0.2767,0,0,-0.2455,-0.2491,-0.2516,-0.2558,-0.258,-0.2603,-0.2633,-0.2659,-0.2694,-0.2706,-0.2697,-0.2723,-0.2725,-0.2752,-0.2764,-0.2764,-0.2779,-0.2762,-0.2794,-0.2797,-0.28,-0.284,-0.2847,-0.2766,-0.2766,-0.2765,-0.2765,0,-0.248,-0.2493,-0.2509,-0.2543,-0.2584,-0.2605,-0.2612,-0.2651,-0.2664,-0.2688,-0.2689,-0.2698,-0.2713,-0.2727,-0.2732,-0.2756,-0.2758,-0.2759,-0.2778,-0.279,-0.2794,-0.2797,-0.2837,-0.2844,-0.2764,-0.2764,-0.2764,0,-0.2491,-0.2517,-0.2516,-0.2561,-0.2579,-0.2615,-0.2615,-0.2637,-0.2662,-0.2654,-0.2677,-0.2678,-0.2684,-0.2705,-0.271,-0.2705,-0.2744,-0.2723,-0.2726,-0.2723,-0.2734,-0.2738,-0.2742,-0.2691,-0.2691,-0.2691,0,0,-0.2509,-0.2517,-0.256,-0.2567,-0.2584,-0.2609,-0.2621,-0.2636,-0.2653,-0.2657,-0.2664,-0.2669,-0.2679,-0.2684,-0.2691,-0.2705,-0.2711,-0.2715,-0.2718,-0.2721,-0.272,-0.2732,-0.2736,-0.269,-0.269,-0.269,0,0,-0.2513,-0.2549,-0.2556,-0.2572,-0.2601,-0.2633,-0.2639,-0.2648,-0.266,-0.2654,-0.2657,-0.2658,-0.267,-0.2669,-0.2661,-0.269,-0.2675,-0.2677,-0.2695,-0.2699,-0.2702,-0.27,-0.2654,0,0,0,0,0,-0.2539,-0.2546,-0.2551,-0.2558,-0.2596,-0.263,-0.2636,-0.2651,-0.2643,-0.2653,-0.2657,-0.265,-0.2671,-0.2664,-0.2664,-0.2678,-0.2681,-0.2683,-0.2684,-0.271,-0.2714,-0.2718,0,0,0,0,0,0,-0.2541,-0.2549,-0.2551,-0.2583,-0.2592,-0.263,-0.2628,-0.2632,-0.2643,-0.2643,-0.265,-0.265,-0.2654,-0.2663,-0.2663,-0.2677,-0.2654,-0.2682,-0.2683,-0.2684,-0.2711,-0.2715,-0.2718,0,0,0,0,0,-0.2544,-0.255,-0.2606,-0.2583,-0.2591,-0.2615,-0.2627,-0.2631,-0.2638,-0.2648,-0.2649,-0.2648,-0.2655,-0.2655,-0.2663,-0.2677,-0.2654,-0.2654,-0.2683,-0.2684,-0.2684,-0.2713,0,0,0,0,0,0,-0.2545,-0.2553,-0.2608,-0.2611,-0.2579,-0.2613,-0.2619,-0.263,-0.2641,-0.2643,-0.2646,-0.2646,-0.2655,-0.2655,-0.2655,-0.2677,-0.2654,-0.2654,-0.2654,-0.2683,-0.2684,-0.2685,0,0,0,0,0,0,-0.255,-0.2556,-0.2609,-0.2603,-0.2606,-0.2612,-0.2617,-0.262,-0.264,-0.2638,-0.2639,-0.2646,-0.2645,-0.2655,-0.2655,-0.266,-0.2653,-0.2654,-0.2654,-0.2654,-0.2684,-0.2685,0,0,0,0,0,0,-0.2553,-0.2557,-0.2602,-0.2604,-0.2606,-0.2641,-0.2613,-0.2645,-0.2655,-0.2636,-0.2654,-0.2654,-0.2645,-0.2646,-0.2655,-0.266,-0.266,-0.2653,-0.2654,-0.2654,-0.2654,0,0,0,0,0,0,0,-0.2555,-0.2518,-0.259,-0.2605,-0.2607,-0.2639,-0.264,-0.2641,-0.2655,-0.2655,-0.2655,-0.2654,-0.2652,-0.2653,-0.2653,-0.266,0,0,-0.2653,-0.2654,0,0,0,0,0,0,0,0,-0.2517,-0.2518,-0.2591,-0.2591,-0.2592,-0.2639,-0.264,-0.2641,-0.2655,-0.2655,-0.2655,-0.2654,-0.2652,-0.2653,-0.2653,0,0,0,0,0,0,0,0,0,0,0,0,0,0,0,-0.2591,-0.2591,0,-0.264,-0.264,-0.2641,-0.2655,-0.2655,-0.2655,-0.2654,-0.2653,-0.2653,-0.2653,0,0,0,0,0,0,0,0,0,0,0,0,0,0,0,0,0,0,0,0,0,0,0,0,0,0,0,0,0,0,0,0,0,0,0,0,0,0,0,0,0,0,0,0,0,0,0,0,0,0,0,0,0,0,0,0,0,0,0,0,0,0,0,0,0,0,0,0,0]}],[{"header":{"parameterUnit":"kt","parameterCategory":2,"dx":1,"dy":1,"la1":30.253999710083008,"la2":30.299108505249023,"lo1":-89.0895004272461,"lo2":-89.04439544677734,"nx":28,"ny":28,"refTime":"2022-10-25T21:00:00:Z","depth":"2","parameterNumber":3,"parameterNumberName":"V-component_of_CURRENTS"},"data":[-0.0785,-0.0843,-0.088,-0.1038,-0.1126,-0.1257,-0.1306,-0.136,-0.1318,-0.1284,-0.1152,-0.091,-0.0446,-0.0104,0.025,0.0503,0.0511,0.0518,0.0507,0.036,0.0353,0.0591,0.0543,0,0,0,0,0,-0.0781,-0.0834,-0.0897,-0.0992,-0.1088,-0.1125,-0.12,-0.1234,-0.1286,-0.1212,-0.1147,-0.0808,-0.042,-0.0052,0.0427,0.0716,0.069,0.076,0.0676,0.067,0.0666,0.0641,0.0712,0.0713,0.0714,0.0715,0,0,-0.077,-0.081,-0.085,-0.0918,-0.0994,-0.1086,-0.1129,-0.1162,-0.1184,-0.1141,-0.104,-0.0888,-0.0551,0.0001,0.0307,0.0609,0.0604,0.0695,0.069,0.0686,0.0664,0.0631,0.074,0.074,0.0741,0.0741,0.0742,0,-0.0747,-0.0768,-0.0797,-0.0867,-0.092,-0.0979,-0.1011,-0.1026,-0.0981,-0.0962,-0.0914,-0.0825,-0.048,-0.0166,0.024,0.0411,0.0558,0.0618,0.0614,0.053,0.049,0.0507,0.0498,0.0579,0.0578,0.0578,0.0578,0.0578,-0.0705,-0.0729,-0.0771,-0.0806,-0.0822,-0.0859,-0.0881,-0.0843,-0.084,-0.076,-0.0756,-0.0601,-0.0489,-0.0129,0.0171,0.0466,0.048,0.0601,0.0615,0.0579,0.0599,0.0588,0.0577,0.0575,0.0575,0.0576,0.0576,0,-0.0678,-0.0682,-0.0722,-0.073,-0.074,-0.077,-0.0773,-0.0776,-0.0708,-0.0683,-0.0662,-0.0507,-0.0341,-0.012,0.0105,0.0265,0.0459,0.0528,0.0434,0.0456,0.0571,0.0562,0.0679,0.0681,0.0683,0.0685,0.0686,0,-0.0621,-0.0654,-0.0655,-0.0677,-0.0713,-0.0675,-0.0687,-0.0643,-0.0582,-0.0565,-0.0424,-0.0382,-0.0174,-0.0044,0.0112,0.031,0.0297,0.0457,0.049,0.0429,0.0427,0.0437,0.0435,0.045,0.045,0.0449,0.0448,0,-0.0568,-0.0587,-0.0615,-0.062,-0.0596,-0.0605,-0.0585,-0.0507,-0.0485,-0.0392,-0.0367,-0.0224,-0.0171,-0.0026,0.0137,0.0136,0.0307,0.0331,0.0453,0.0456,0.0466,0.0467,0.0448,0.0448,0.0447,0.0447,0.0447,0,-0.0514,-0.0524,-0.0555,-0.0551,-0.0549,-0.055,-0.0502,-0.0473,-0.0379,-0.0336,-0.0248,-0.0166,-0.0065,-0.0021,0.0147,0.0106,0.0193,0.0266,0.0272,0.0354,0.0379,0.0396,0.0399,0.0332,0.0331,0.033,0.0329,0,-0.0467,-0.0496,-0.0469,-0.0488,-0.049,-0.0432,-0.041,-0.0354,-0.0291,-0.0245,-0.0142,-0.0086,-0.0021,0.0006,0.0071,0.0166,0.0216,0.0168,0.0318,0.0322,0.0356,0.0361,0.0306,0.0381,0.0315,0.0316,0.0318,0,-0.0424,-0.0409,-0.0415,-0.0427,-0.0377,-0.0356,-0.0328,-0.027,-0.0255,-0.0185,-0.0153,-0.0052,-0.0002,0.0047,0.011,0.0161,0.0194,0.0189,0.0194,0.0217,0.0296,0.0336,0.0349,0.0218,0.022,0.0221,0.0306,0,-0.0389,-0.0387,-0.0385,-0.0366,-0.0337,-0.0324,-0.026,-0.0236,-0.0198,-0.0148,-0.0086,0.0004,0.008,0.0098,0.0143,0.0188,0.0198,0.0227,0.0265,0.0246,0.0284,0.0292,0.0217,0.0219,0.022,0.0222,0,0,-0.036,-0.035,-0.0296,-0.0301,-0.0284,-0.021,-0.021,-0.0167,-0.0094,-0.0071,-0.0059,0.0063,0.0125,0.0193,0.0184,0.0215,0.0243,0.0221,0.0247,0.0249,0.0252,0.0287,0.0294,0.0224,0.0224,0.0225,0.0225,0,-0.0337,-0.0307,-0.0307,-0.0282,-0.0235,-0.0185,-0.0184,-0.0116,-0.0093,-0.0051,0.0003,0.0055,0.0134,0.0194,0.0234,0.0228,0.0282,0.023,0.0199,0.0256,0.0256,0.0257,0.0292,0.0296,0.0229,0.0228,0.0228,0,-0.0318,-0.0283,-0.0271,-0.0213,-0.0173,-0.0152,-0.0104,-0.0071,-0.0056,0.0025,0.0052,0.0107,0.0186,0.0227,0.0249,0.0267,0.0322,0.0303,0.0297,0.0309,0.0372,0.0371,0.0371,0.0376,0.0376,0.0376,0,0,-0.0307,-0.0291,-0.022,-0.02,-0.0182,-0.0117,-0.0092,-0.0062,-0.0005,0.0013,0.0069,0.0126,0.0181,0.0212,0.0267,0.0311,0.0358,0.0317,0.031,0.0304,0.0312,0.0373,0.0372,0.0377,0.0377,0.0377,0,0,-0.0291,-0.0224,-0.021,-0.0183,-0.0134,-0.0049,-0.0039,-0.0011,0.0035,0.003,0.0107,0.0125,0.0165,0.0215,0.0212,0.0273,0.0306,0.0309,0.0234,0.0227,0.022,0.0215,0.0265,0,0,0,0,0,-0.0238,-0.0232,-0.0221,-0.0207,-0.0119,-0.0057,-0.0044,0.0001,0.0005,0.0009,0.0061,0.01,0.0224,0.0223,0.0243,0.0238,0.0382,0.0381,0.038,0.0296,0.0287,0.0279,0,0,0,0,0,0,-0.0232,-0.0216,-0.022,-0.0137,-0.0116,-0.0057,-0.0031,-0.0018,0.0005,0.0007,0.0089,0.0103,0.0158,0.0218,0.0235,0.0228,0.0259,0.0382,0.0381,0.038,0.0293,0.0286,0.0279,0,0,0,0,0,-0.0227,-0.0214,-0.0092,-0.0136,-0.0118,-0.0052,-0.0032,-0.0021,-0.0008,0.0083,0.0097,0.0021,0.0157,0.0175,0.0228,0.0218,0.0248,0.0254,0.0381,0.0381,0.038,0.0289,0,0,0,0,0,0,-0.0223,-0.0201,-0.0086,-0.0078,-0.0146,-0.0055,-0.0042,-0.0024,0.0068,0.0081,0.0021,0.0022,0.0157,0.0171,0.0185,0.021,0.0239,0.0245,0.0249,0.0381,0.038,0.038,0,0,0,0,0,0,-0.0207,-0.0195,-0.0082,-0.0097,-0.009,-0.0058,-0.0047,0.002,0.0069,0.0,0.0004,0.0021,0.0142,0.0168,0.0179,0.0281,0.0232,0.0238,0.0242,0.0244,0.0381,0.038,0,0,0,0,0,0,-0.0201,-0.019,-0.0099,-0.0094,-0.0088,0.0007,0.0003,0.0091,0.0047,-0.0004,0.0046,0.0045,0.0139,0.015,0.0175,0.0272,0.0278,0.0232,0.0236,0.0239,0.0241,0,0,0,0,0,0,0,-0.0195,-0.0284,-0.0134,-0.0091,-0.0086,-0.0002,-0.0,0.0002,0.0047,0.0047,0.0046,0.0045,0.0197,0.0204,0.0211,0.0265,0,0,0.0231,0.0234,0,0,0,0,0,0,0,0,-0.0287,-0.0285,-0.0133,-0.0132,-0.013,-0.0002,-0.0,0.0002,0.0047,0.0047,0.0046,0.0046,0.0199,0.0204,0.021,0,0,0,0,0,0,0,0,0,0,0,0,0,0,0,-0.0133,-0.0132,0,-0.0002,-0.0,0.0001,0.0047,0.0047,0.0046,0.0046,0.0201,0.0205,0.0209,0,0,0,0,0,0,0,0,0,0,0,0,0,0,0,0,0,0,0,0,0,0,0,0,0,0,0,0,0,0,0,0,0,0,0,0,0,0,0,0,0,0,0,0,0,0,0,0,0,0,0,0,0,0,0,0,0,0,0,0,0,0,0,0,0,0,0,0,0]}]],[[{"header":{"parameterUnit":"kt","parameterCategory":2,"dx":1,"dy":1,"la1":30.253999710083008,"la2":30.299108505249023,"lo1":-89.0895004272461,"lo2":-89.04439544677734,"nx":28,"ny":28,"refTime":"2022-10-25T21:00:00:Z","depth":"4","parameterNumber":2,"parameterNumberName":"U-component_of_CURRENTS"},"data":[-0.1067,-0.1093,-0.1116,-0.1116,-0.1129,-0.1197,-0.1276,-0.14,-0.1428,-0.163,-0.1674,-0.1815,-0.1898,-0.2012,-0.1984,-0.2004,-0.1996,-0.221,-0.2204,-0.2288,-0.2306,-0.2322,-0.2206,0,0,0,0,0,-0.1112,-0.1118,-0.116,-0.1217,-0.1294,-0.1338,-0.148,-0.1554,-0.1746,-0.1769,-0.1873,-0.1953,-0.2005,-0.2099,-0.2029,-0.2204,-0.2255,-0.2112,-0.2172,-0.2299,-0.2319,-0.2199,0,0,0,0,0,0,-0.1197,-0.1205,-0.1267,-0.1327,-0.141,-0.1449,-0.1516,-0.1609,-0.1703,-0.1965,-0.1991,-0.2166,-0.2316,-0.2298,-0.2326,-0.2306,-0.2259,-0.2178,-0.2204,-0.2224,-0.2108,-0.2,-0.1905,0,0,0,0,0,-0.1262,-0.1314,-0.1358,-0.1429,-0.15,-0.1567,-0.1675,-0.1718,-0.1904,-0.2066,-0.2177,-0.2234,-0.2336,-0.2391,-0.2415,-0.2419,-0.255,-0.2498,-0.2507,-0.2427,-0.237,-0.2349,-0.235,-0.2396,-0.2398,-0.24,-0.2401,0,-0.1359,-0.1369,-0.149,-0.1526,-0.1581,-0.1667,-0.1732,-0.1891,-0.1964,-0.2197,-0.2251,-0.2406,-0.2503,-0.2501,-0.259,-0.26,-0.2564,-0.2551,-0.2466,-0.2401,-0.2377,-0.2372,-0.2367,-0.2417,-0.2416,-0.2414,-0.2413,0,-0.141,-0.1475,-0.1521,-0.1636,-0.1683,-0.1729,-0.1874,-0.1938,-0.2087,-0.2212,-0.2262,-0.2452,-0.254,-0.263,-0.272,-0.2648,-0.2653,-0.2611,-0.2749,-0.2732,-0.2403,-0.2391,-0.2444,-0.2438,-0.2433,-0.2428,-0.2425,0,-0.1505,-0.1534,-0.1635,-0.1648,-0.1719,-0.1807,-0.1897,-0.1993,-0.2132,-0.2221,-0.235,-0.2434,-0.2549,-0.2631,-0.2641,-0.2613,-0.2737,-0.2528,-0.2507,-0.2634,-0.2622,-0.2623,-0.2608,-0.2742,-0.2741,-0.274,-0.274,0,-0.1555,-0.1629,-0.1659,-0.1686,-0.1792,-0.1843,-0.1909,-0.2035,-0.2106,-0.2254,-0.2328,-0.2441,-0.2511,-0.2561,-0.2595,-0.2567,-0.2696,-0.2661,-0.2506,-0.2493,-0.2613,-0.26,-0.2739,-0.2739,-0.2739,-0.2739,-0.2738,0,-0.1625,-0.1652,-0.1689,-0.178,-0.1799,-0.1846,-0.1958,-0.2021,-0.2155,-0.2216,-0.2308,-0.2358,-0.2452,-0.2422,-0.2527,-0.2482,-0.2494,-0.2509,-0.2512,-0.2325,-0.2257,-0.2394,-0.2511,-0.2509,-0.2507,-0.2505,-0.2504,0,-0.1655,-0.1682,-0.172,-0.1772,-0.1791,-0.186,-0.1926,-0.1999,-0.2067,-0.216,-0.2222,-0.2292,-0.2275,-0.2304,-0.2354,-0.2382,-0.2426,-0.2363,-0.2419,-0.2421,-0.2237,-0.2304,-0.2394,-0.2479,-0.2482,-0.2484,-0.2486,0,-0.1659,-0.1718,-0.1722,-0.1746,-0.1803,-0.1829,-0.1899,-0.1963,-0.2022,-0.2083,-0.2165,-0.2212,-0.2241,-0.2254,-0.2257,-0.2301,-0.2385,-0.2269,-0.2271,-0.2291,-0.2486,-0.2296,-0.2292,-0.238,-0.2383,-0.2385,-0.2468,0,-0.1668,-0.1703,-0.1721,-0.1752,-0.1788,-0.1818,-0.1862,-0.1913,-0.1953,-0.1985,-0.2071,-0.2093,-0.2139,-0.2152,-0.2131,-0.2218,-0.2195,-0.2178,-0.2142,-0.2214,-0.2238,-0.2252,-0.2068,-0.2066,-0.2065,-0.2065,0,0,-0.1657,-0.1676,-0.1708,-0.1724,-0.175,-0.1784,-0.1806,-0.1842,-0.1886,-0.1919,-0.1913,-0.1996,-0.2004,-0.2061,-0.2075,-0.2078,-0.209,-0.2062,-0.2172,-0.2184,-0.2195,-0.2222,-0.2236,-0.2063,-0.2063,-0.2062,-0.2062,0,-0.1634,-0.1673,-0.1693,-0.1718,-0.1751,-0.1763,-0.1785,-0.1815,-0.184,-0.1889,-0.1883,-0.1928,-0.1959,-0.1972,-0.1979,-0.2056,-0.2044,-0.206,-0.2108,-0.2162,-0.2175,-0.2186,-0.2215,-0.2229,-0.2059,-0.206,-0.206,0,-0.161,-0.1626,-0.165,-0.1686,-0.1706,-0.1728,-0.1725,-0.1761,-0.1789,-0.177,-0.1825,-0.1837,-0.1841,-0.1882,-0.1907,-0.1885,-0.1997,-0.1953,-0.1958,-0.1969,-0.2022,-0.2038,-0.2051,-0.1876,-0.1875,-0.1875,0,0,-0.159,-0.1622,-0.1644,-0.1681,-0.1695,-0.1715,-0.1735,-0.174,-0.1757,-0.1767,-0.1783,-0.18,-0.182,-0.1835,-0.1851,-0.1898,-0.1909,-0.1931,-0.1939,-0.1946,-0.1961,-0.2016,-0.203,-0.1873,-0.1873,-0.1873,0,0,-0.1575,-0.1604,-0.1615,-0.1652,-0.1679,-0.1687,-0.1712,-0.1724,-0.1747,-0.175,-0.1742,-0.1744,-0.1797,-0.1793,-0.1765,-0.1843,-0.1807,-0.1813,-0.1842,-0.1853,-0.1861,-0.1871,-0.1727,0,0,0,0,0,-0.1574,-0.1602,-0.1613,-0.1622,-0.1659,-0.1688,-0.1693,-0.1697,-0.1703,-0.1723,-0.173,-0.1716,-0.1769,-0.1743,-0.1749,-0.179,-0.1845,-0.185,-0.1855,-0.1904,-0.1916,-0.1925,0,0,0,0,0,0,-0.1578,-0.1587,-0.1612,-0.1622,-0.1631,-0.1686,-0.166,-0.1662,-0.17,-0.1699,-0.1715,-0.1715,-0.1696,-0.1739,-0.1745,-0.1784,-0.1725,-0.1847,-0.1851,-0.1855,-0.1908,-0.1917,-0.1925,0,0,0,0,0,-0.1581,-0.1589,-0.1649,-0.1621,-0.1629,-0.1645,-0.1659,-0.166,-0.1692,-0.1685,-0.1686,-0.1699,-0.1696,-0.1702,-0.1742,-0.1782,-0.1721,-0.1723,-0.185,-0.1853,-0.1856,-0.1913,0,0,0,0,0,0,-0.1583,-0.1582,-0.165,-0.1653,-0.1613,-0.1642,-0.1646,-0.1659,-0.1675,-0.1678,-0.1665,-0.1663,-0.1697,-0.1701,-0.1705,-0.1782,-0.1718,-0.172,-0.1721,-0.1852,-0.1855,-0.1857,0,0,0,0,0,0,-0.1578,-0.1584,-0.1651,-0.1641,-0.1642,-0.1639,-0.1643,-0.1669,-0.1675,-0.1653,-0.1653,-0.1664,-0.1696,-0.17,-0.1704,-0.1744,-0.1715,-0.1717,-0.1719,-0.172,-0.1854,-0.1856,0,0,0,0,0,0,-0.1581,-0.1586,-0.164,-0.1641,-0.1642,-0.167,-0.1662,-0.1701,-0.1665,-0.1652,-0.1663,-0.1662,-0.1696,-0.1699,-0.1703,-0.1741,-0.1743,-0.1715,-0.1717,-0.1718,-0.1718,0,0,0,0,0,0,0,-0.1583,-0.1548,-0.1639,-0.1641,-0.1642,-0.168,-0.168,-0.168,-0.1665,-0.1664,-0.1664,-0.1663,-0.1703,-0.1705,-0.1708,-0.1739,0,0,-0.1715,-0.1716,0,0,0,0,0,0,0,0,-0.1546,-0.1548,-0.1639,-0.164,-0.1641,-0.168,-0.168,-0.168,-0.1665,-0.1664,-0.1664,-0.1663,-0.1703,-0.1705,-0.1707,0,0,0,0,0,0,0,0,0,0,0,0,0,0,0,-0.164,-0.164,0,-0.168,-0.168,-0.168,-0.1665,-0.1664,-0.1664,-0.1663,-0.1704,-0.1706,-0.1707,0,0,0,0,0,0,0,0,0,0,0,0,0,0,0,0,0,0,0,0,0,0,0,0,0,0,0,0,0,0,0,0,0,0,0,0,0,0,0,0,0,0,0,0,0,0,0,0,0,0,0,0,0,0,0,0,0,0,0,0,0,0,0,0,0,0,0,0,0]}],[{"header":{"parameterUnit":"kt","parameterCategory":2,"dx":1,"dy":1,"la1":30.253999710083008,"la2":30.299108505249023,"lo1":-89.0895004272461,"lo2":-89.04439544677734,"nx":28,"ny":28,"refTime":"2022-10-25T21:00:00:Z","depth":"4","parameterNumber":3,"parameterNumberName":"V-component_of_CURRENTS"},"data":[0.007,0.0045,0.0007,-0.0116,-0.0192,-0.0332,-0.0448,-0.0524,-0.0552,-0.0603,-0.0485,-0.0441,-0.021,-0.0378,0.0002,0.0055,0.0167,0.0384,0.0388,0.0549,0.0548,0.0548,0.0503,0,0,0,0,0,0.0067,0.0039,-0.0004,-0.0084,-0.0182,-0.025,-0.0393,-0.0452,-0.0548,-0.0604,-0.0601,-0.051,-0.0289,-0.0185,-0.0013,0.0063,0.0315,0.0274,0.0407,0.0548,0.0548,0.0505,0,0,0,0,0,0,0.0051,0.0033,0.001,-0.0041,-0.0128,-0.0263,-0.0314,-0.0413,-0.0489,-0.0572,-0.0583,-0.0474,-0.0404,-0.015,0.0032,0.0209,0.0263,0.0333,0.0344,0.0346,0.028,0.0246,0.0205,0,0,0,0,0,0.0047,0.0032,0.0017,-0.0027,-0.0089,-0.018,-0.0264,-0.0336,-0.0423,-0.0439,-0.0494,-0.0397,-0.0301,-0.01,0.0089,0.0279,0.0447,0.0494,0.0496,0.0515,0.0512,0.0538,0.0537,0.0546,0.0546,0.0546,0.0546,0,0.0034,0.0035,0.0004,-0.002,-0.0031,-0.008,-0.0139,-0.0192,-0.0259,-0.033,-0.0381,-0.033,-0.0282,-0.0064,0.0123,0.0374,0.0416,0.0492,0.0512,0.0511,0.0538,0.0537,0.0536,0.0546,0.0546,0.0546,0.0546,0,0.002,0.0031,0.0024,0.0009,-0.0009,-0.0034,-0.011,-0.0159,-0.0178,-0.0257,-0.027,-0.0238,-0.0143,0.0014,0.0175,0.0288,0.0426,0.0474,0.0446,0.0475,0.0536,0.0535,0.0545,0.0545,0.0545,0.0545,0.0546,0,0.0019,0.002,0.0023,0.0026,-0.0009,-0.0005,-0.0054,-0.0058,-0.0094,-0.015,-0.0089,-0.0119,0.0021,0.0096,0.0237,0.0364,0.0358,0.0469,0.0497,0.0483,0.0483,0.0521,0.0525,0.0478,0.0477,0.0477,0.0476,0,0.0022,0.0029,0.0032,0.0036,0.0038,0.0022,0.0014,0.0013,-0.0011,-0.0009,-0.0035,0.0031,0.0042,0.0144,0.0281,0.0295,0.0388,0.0423,0.049,0.0492,0.052,0.0525,0.0476,0.0476,0.0476,0.0475,0.0475,0,0.0035,0.0047,0.0051,0.0048,0.0049,0.0042,0.0035,0.0037,0.0048,0.0058,0.0079,0.012,0.0162,0.0213,0.0317,0.0305,0.038,0.0439,0.0443,0.047,0.052,0.0573,0.0517,0.0517,0.0517,0.0517,0.0517,0,0.0042,0.0055,0.0073,0.0072,0.0085,0.0109,0.0104,0.0124,0.0149,0.0156,0.0206,0.0225,0.0296,0.0308,0.0337,0.0415,0.0435,0.042,0.0521,0.0524,0.0525,0.0473,0.0451,0.0515,0.0516,0.0516,0.0516,0,0.0058,0.0096,0.0098,0.0108,0.0145,0.0152,0.0156,0.0185,0.0181,0.0238,0.0237,0.0304,0.0336,0.0366,0.0419,0.0438,0.0438,0.0485,0.0488,0.0512,0.0478,0.0474,0.0475,0.0454,0.0454,0.0453,0.0515,0,0.0119,0.0126,0.0119,0.0151,0.0163,0.0173,0.0215,0.0232,0.027,0.0309,0.0336,0.0402,0.0449,0.0467,0.0513,0.051,0.0539,0.0562,0.0601,0.0554,0.0589,0.059,0.0609,0.061,0.0612,0.0613,0,0,0.0143,0.0156,0.0183,0.0193,0.0209,0.0265,0.0271,0.03,0.0371,0.0385,0.0416,0.0495,0.055,0.0571,0.0567,0.0592,0.0615,0.0608,0.0576,0.0571,0.0567,0.0598,0.0597,0.0615,0.0616,0.0616,0.0617,0,0.0179,0.0187,0.0181,0.0207,0.0251,0.0288,0.0289,0.0353,0.0384,0.0417,0.048,0.0513,0.0579,0.0619,0.0646,0.0611,0.0667,0.0622,0.0573,0.0587,0.058,0.0575,0.0604,0.0602,0.062,0.062,0.062,0,0.0222,0.0246,0.0242,0.0277,0.031,0.0328,0.0383,0.0404,0.0422,0.0507,0.0545,0.0591,0.0651,0.0674,0.0688,0.0709,0.0713,0.0717,0.0711,0.0709,0.0726,0.0718,0.0711,0.0801,0.0801,0.0801,0,0,0.025,0.0245,0.0298,0.0288,0.0303,0.0366,0.0387,0.0427,0.0477,0.0502,0.0564,0.0617,0.0654,0.0681,0.0723,0.0738,0.0767,0.0736,0.0728,0.0721,0.0715,0.073,0.0722,0.0803,0.0803,0.0803,0,0,0.0269,0.031,0.0334,0.0325,0.0363,0.043,0.0435,0.0476,0.0525,0.0533,0.0613,0.0632,0.0659,0.0699,0.0707,0.0736,0.0774,0.0773,0.0708,0.0699,0.069,0.0674,0.0774,0,0,0,0,0,0.0323,0.03,0.0321,0.0326,0.038,0.0412,0.0424,0.0486,0.0514,0.0519,0.0577,0.0623,0.0719,0.0728,0.0741,0.073,0.0819,0.0816,0.0813,0.0734,0.0723,0.0713,0,0,0,0,0,0,0.0325,0.033,0.0322,0.0381,0.0394,0.0413,0.0469,0.0486,0.0516,0.0525,0.061,0.0626,0.0681,0.0725,0.0737,0.0724,0.0771,0.0818,0.0815,0.0813,0.073,0.0721,0.0713,0,0,0,0,0,0.0328,0.0332,0.0394,0.0383,0.0394,0.0471,0.0471,0.0485,0.0513,0.0594,0.0611,0.0559,0.0679,0.0694,0.0732,0.0717,0.0763,0.0767,0.0816,0.0814,0.0812,0.0725,0,0,0,0,0,0,0.033,0.0355,0.0399,0.0406,0.0394,0.0472,0.0484,0.0484,0.0582,0.0598,0.0545,0.0551,0.0677,0.0689,0.07,0.0711,0.0757,0.0761,0.0764,0.0815,0.0813,0.0812,0,0,0,0,0,0,0.0354,0.036,0.0403,0.0413,0.0421,0.0473,0.0483,0.0519,0.0583,0.053,0.0537,0.0547,0.0664,0.0685,0.0694,0.0748,0.0753,0.0756,0.0759,0.0761,0.0813,0.0812,0,0,0,0,0,0,0.0358,0.0364,0.0411,0.0418,0.0426,0.0512,0.0508,0.0562,0.058,0.0525,0.0584,0.0586,0.0659,0.0669,0.069,0.0739,0.0746,0.0753,0.0755,0.0757,0.0758,0,0,0,0,0,0,0,0.0362,0.03,0.0355,0.0423,0.043,0.0471,0.0473,0.0475,0.058,0.0582,0.0584,0.0585,0.073,0.0735,0.0739,0.0732,0,0,0.0752,0.0754,0,0,0,0,0,0,0,0,0.0299,0.03,0.0355,0.0356,0.0358,0.0471,0.0473,0.0475,0.058,0.0582,0.0583,0.0584,0.0732,0.0735,0.0738,0,0,0,0,0,0,0,0,0,0,0,0,0,0,0,0.0355,0.0356,0,0.0472,0.0473,0.0474,0.0581,0.0582,0.0583,0.0584,0.0732,0.0735,0.0738,0,0,0,0,0,0,0,0,0,0,0,0,0,0,0,0,0,0,0,0,0,0,0,0,0,0,0,0,0,0,0,0,0,0,0,0,0,0,0,0,0,0,0,0,0,0,0,0,0,0,0,0,0,0,0,0,0,0,0,0,0,0,0,0,0,0,0,0,0]}]]]